contact:dominique.lefevre@mio.osupytheas.fr, maurice.libes@osupytheas.fr, didier.mallarino@osupytheas.fr
Project:EMSO http://www.emso-fr.org/EMSO-France
Depth: 2436.0 m
Title:EMSO Ligure Ouest : Data MII capteur MICROCAT
DateTime_Computer,Latitude,Longitude,Temperature,Conductivity,Pressure,DateTime_Instrument
DateTime_Computer,Latitude,Longitude,degC,S m-1,dbar,DateTime_Instrument
2022-08-17T00:01:23Z,42.805,6.029,13.3012,4.60054,2470.67,2022-8-17T02:03:13Z
2022-08-17T00:04:26Z,42.805,6.029,13.3010,4.60055,2470.67,2022-8-17T02:06:16Z
2022-08-17T00:07:29Z,42.805,6.029,13.3008,4.60055,2470.661,2022-8-17T02:09:19Z
2022-08-17T00:10:32Z,42.805,6.029,13.3010,4.60054,2470.67,2022-8-17T02:12:22Z
2022-08-17T00:13:36Z,42.805,6.029,13.3012,4.60052,2470.646,2022-8-17T02:15:25Z
2022-08-17T00:16:39Z,42.805,6.029,13.3011,4.60052,2470.684,2022-8-17T02:18:28Z
2022-08-17T00:19:42Z,42.805,6.029,13.3010,4.60053,2470.684,2022-8-17T02:21:31Z
2022-08-17T00:22:45Z,42.805,6.029,13.3014,4.60059,2470.646,2022-8-17T02:24:34Z
2022-08-17T00:25:48Z,42.805,6.029,13.3006,4.60055,2470.661,2022-8-17T02:27:37Z
2022-08-17T00:28:51Z,42.805,6.029,13.3009,4.60057,2470.67,2022-8-17T02:30:41Z
2022-08-17T00:31:54Z,42.805,6.029,13.3009,4.60057,2470.661,2022-8-17T02:33:44Z
2022-08-17T00:34:57Z,42.805,6.029,13.3012,4.60058,2470.661,2022-8-17T02:36:47Z
2022-08-17T00:38:01Z,42.805,6.029,13.3008,4.60058,2470.646,2022-8-17T02:39:50Z
2022-08-17T00:41:04Z,42.805,6.029,13.3010,4.60059,2470.646,2022-8-17T02:42:53Z
2022-08-17T00:44:07Z,42.805,6.029,13.3013,4.60064,2470.637,2022-8-17T02:45:56Z
2022-08-17T00:47:10Z,42.805,6.029,13.3012,4.60055,2470.637,2022-8-17T02:48:59Z
2022-08-17T00:50:13Z,42.805,6.029,13.3008,4.60059,2470.6,2022-8-17T02:52:02Z
2022-08-17T00:53:16Z,42.805,6.029,13.3011,4.60060,2470.637,2022-8-17T02:55:06Z
2022-08-17T00:56:19Z,42.805,6.029,13.3012,4.60056,2470.637,2022-8-17T02:58:09Z
2022-08-17T00:59:22Z,42.805,6.029,13.3011,4.60055,2470.633,2022-8-17T03:01:12Z
2022-08-17T01:02:25Z,42.805,6.029,13.3011,4.60058,2470.637,2022-8-17T03:04:15Z
2022-08-17T01:05:29Z,42.805,6.029,13.3011,4.60056,2470.661,2022-8-17T03:07:18Z
2022-08-17T01:08:32Z,42.805,6.029,13.3011,4.60054,2470.646,2022-8-17T03:10:21Z
2022-08-17T01:11:35Z,42.805,6.029,13.3005,4.60060,2470.637,2022-8-17T03:13:24Z
2022-08-17T01:14:38Z,42.805,6.029,13.3010,4.60055,2470.6,2022-8-17T03:16:27Z
2022-08-17T01:17:41Z,42.805,6.029,13.3010,4.60060,2470.614,2022-8-17T03:19:31Z
2022-08-17T01:20:44Z,42.805,6.029,13.3009,4.60060,2470.637,2022-8-17T03:22:34Z
2022-08-17T01:23:47Z,42.805,6.029,13.3009,4.60063,2470.6,2022-8-17T03:25:37Z
2022-08-17T01:26:50Z,42.805,6.029,13.3006,4.60057,2470.637,2022-8-17T03:28:40Z
2022-08-17T01:29:54Z,42.805,6.029,13.3011,4.60059,2470.6,2022-8-17T03:31:43Z
2022-08-17T01:32:57Z,42.805,6.029,13.3008,4.60057,2470.6,2022-8-17T03:34:46Z
2022-08-17T01:36:00Z,42.805,6.029,13.3011,4.60056,2470.6,2022-8-17T03:37:49Z
2022-08-17T01:39:03Z,42.805,6.029,13.3011,4.60057,2470.614,2022-8-17T03:40:52Z
2022-08-17T01:42:06Z,42.805,6.029,13.3010,4.60060,2470.6,2022-8-17T03:43:56Z
2022-08-17T01:45:09Z,42.805,6.029,13.3010,4.60064,2470.637,2022-8-17T03:46:59Z
2022-08-17T01:48:12Z,42.805,6.029,13.3009,4.60057,2470.624,2022-8-17T03:50:02Z
2022-08-17T01:51:15Z,42.805,6.029,13.3011,4.60054,2470.624,2022-8-17T03:53:05Z
2022-08-17T01:54:19Z,42.805,6.029,13.3011,4.60059,2470.624,2022-8-17T03:56:08Z
2022-08-17T01:57:22Z,42.805,6.029,13.3012,4.60068,2470.577,2022-8-17T03:59:11Z
2022-08-17T02:00:25Z,42.805,6.029,13.3009,4.60062,2470.6,2022-8-17T04:02:14Z
2022-08-17T02:03:28Z,42.805,6.029,13.3011,4.60059,2470.577,2022-8-17T04:05:17Z
2022-08-17T02:06:31Z,42.805,6.029,13.3010,4.60056,2470.6,2022-8-17T04:08:21Z
2022-08-17T02:09:34Z,42.805,6.029,13.3011,4.60062,2470.614,2022-8-17T04:11:24Z
2022-08-17T02:12:37Z,42.805,6.029,13.3012,4.60063,2470.567,2022-8-17T04:14:27Z
2022-08-17T02:15:40Z,42.805,6.029,13.3006,4.60057,2470.577,2022-8-17T04:17:30Z
2022-08-17T02:18:44Z,42.805,6.029,13.3011,4.60066,2470.614,2022-8-17T04:20:33Z
2022-08-17T02:21:47Z,42.805,6.029,13.3008,4.60058,2470.591,2022-8-17T04:23:36Z
2022-08-17T02:24:50Z,42.805,6.029,13.3010,4.60060,2470.614,2022-8-17T04:26:39Z
2022-08-17T02:27:53Z,42.805,6.029,13.3009,4.60059,2470.567,2022-8-17T04:29:42Z
2022-08-17T02:30:56Z,42.805,6.029,13.3012,4.60060,2470.577,2022-8-17T04:32:46Z
2022-08-17T02:33:59Z,42.805,6.029,13.3008,4.60057,2470.577,2022-8-17T04:35:49Z
2022-08-17T02:37:02Z,42.805,6.029,13.3010,4.60053,2470.553,2022-8-17T04:38:52Z
2022-08-17T02:40:05Z,42.805,6.029,13.3012,4.60054,2470.604,2022-8-17T04:41:55Z
2022-08-17T02:43:09Z,42.805,6.029,13.3008,4.60053,2470.577,2022-8-17T04:44:58Z
2022-08-17T02:46:12Z,42.805,6.029,13.3011,4.60055,2470.567,2022-8-17T04:48:01Z
2022-08-17T02:49:15Z,42.805,6.029,13.3011,4.60057,2470.577,2022-8-17T04:51:04Z
2022-08-17T02:52:18Z,42.805,6.029,13.3012,4.60059,2470.577,2022-8-17T04:54:07Z
2022-08-17T02:55:21Z,42.805,6.029,13.3006,4.60054,2470.591,2022-8-17T04:57:10Z
2022-08-17T02:58:24Z,42.805,6.029,13.3008,4.60057,2470.553,2022-8-17T05:00:14Z
2022-08-17T03:01:27Z,42.805,6.029,13.3012,4.60058,2470.577,2022-8-17T05:03:17Z
2022-08-17T03:04:30Z,42.805,6.029,13.3012,4.60065,2470.577,2022-8-17T05:06:20Z
2022-08-17T03:07:34Z,42.805,6.029,13.3007,4.60062,2470.553,2022-8-17T05:09:23Z
2022-08-17T03:10:37Z,42.805,6.029,13.3013,4.60062,2470.53,2022-8-17T05:12:26Z
2022-08-17T03:13:40Z,42.805,6.029,13.3011,4.60064,2470.544,2022-8-17T05:15:29Z
2022-08-17T03:16:43Z,42.805,6.029,13.3009,4.60053,2470.53,2022-8-17T05:18:32Z
2022-08-17T03:19:46Z,42.805,6.029,13.3011,4.60056,2470.577,2022-8-17T05:21:35Z
2022-08-17T03:22:49Z,42.805,6.029,13.3015,4.60056,2470.567,2022-8-17T05:24:39Z
2022-08-17T03:25:52Z,42.805,6.029,13.3014,4.60062,2470.567,2022-8-17T05:27:42Z
2022-08-17T03:28:55Z,42.805,6.029,13.3011,4.60062,2470.577,2022-8-17T05:30:45Z
2022-08-17T03:31:58Z,42.805,6.029,13.3014,4.60061,2470.567,2022-8-17T05:33:48Z
2022-08-17T03:35:02Z,42.805,6.029,13.3009,4.60054,2470.567,2022-8-17T05:36:51Z
2022-08-17T03:38:05Z,42.805,6.029,13.3011,4.60056,2470.544,2022-8-17T05:39:54Z
2022-08-17T03:41:08Z,42.805,6.029,13.3009,4.60054,2470.544,2022-8-17T05:42:57Z
2022-08-17T03:44:11Z,42.805,6.029,13.3011,4.60055,2470.53,2022-8-17T05:46:00Z
2022-08-17T03:47:14Z,42.805,6.029,13.3014,4.60066,2470.53,2022-8-17T05:49:04Z
2022-08-17T03:50:17Z,42.805,6.029,13.3009,4.60059,2470.567,2022-8-17T05:52:07Z
2022-08-17T03:53:20Z,42.805,6.029,13.3011,4.60052,2470.53,2022-8-17T05:55:10Z
2022-08-17T03:56:23Z,42.805,6.029,13.3010,4.60053,2470.544,2022-8-17T05:58:13Z
2022-08-17T03:59:27Z,42.805,6.029,13.3010,4.60054,2470.53,2022-8-17T06:01:16Z
2022-08-17T04:02:30Z,42.805,6.029,13.3010,4.60055,2470.553,2022-8-17T06:04:19Z
2022-08-17T04:05:33Z,42.805,6.029,13.3011,4.60054,2470.507,2022-8-17T06:07:22Z
2022-08-17T04:08:36Z,42.805,6.029,13.3011,4.60053,2470.567,2022-8-17T06:10:25Z
2022-08-17T04:11:39Z,42.805,6.029,13.3009,4.60051,2470.53,2022-8-17T06:13:29Z
2022-08-17T04:14:42Z,42.805,6.029,13.3011,4.60052,2470.544,2022-8-17T06:16:32Z
2022-08-17T04:17:45Z,42.805,6.029,13.3009,4.60052,2470.544,2022-8-17T06:19:35Z
2022-08-17T04:20:48Z,42.805,6.029,13.3012,4.60051,2470.53,2022-8-17T06:22:38Z
2022-08-17T04:23:52Z,42.805,6.029,13.3010,4.60054,2470.553,2022-8-17T06:25:41Z
2022-08-17T04:26:55Z,42.805,6.029,13.3010,4.60055,2470.52,2022-8-17T06:28:44Z
2022-08-17T04:29:58Z,42.805,6.029,13.3011,4.60052,2470.483,2022-8-17T06:31:47Z
2022-08-17T04:33:01Z,42.805,6.029,13.3010,4.60051,2470.53,2022-8-17T06:34:50Z
2022-08-17T04:36:04Z,42.805,6.029,13.3009,4.60052,2470.544,2022-8-17T06:37:54Z
2022-08-17T04:39:07Z,42.805,6.029,13.3013,4.60052,2470.53,2022-8-17T06:40:57Z
2022-08-17T04:42:10Z,42.805,6.029,13.3010,4.60050,2470.507,2022-8-17T06:44:00Z
2022-08-17T04:45:13Z,42.805,6.029,13.3011,4.60052,2470.577,2022-8-17T06:47:03Z
2022-08-17T04:48:17Z,42.805,6.029,13.3008,4.60051,2470.52,2022-8-17T06:50:06Z
2022-08-17T04:51:20Z,42.805,6.029,13.3011,4.60050,2470.507,2022-8-17T06:53:09Z
2022-08-17T04:54:23Z,42.805,6.029,13.3008,4.60051,2470.483,2022-8-17T06:56:12Z
2022-08-17T04:57:26Z,42.805,6.029,13.3012,4.60054,2470.544,2022-8-17T06:59:15Z
2022-08-17T05:00:29Z,42.805,6.029,13.3009,4.60052,2470.544,2022-8-17T07:02:18Z
2022-08-17T05:03:32Z,42.805,6.029,13.3011,4.60051,2470.483,2022-8-17T07:05:22Z
2022-08-17T05:06:35Z,42.805,6.029,13.3009,4.60051,2470.507,2022-8-17T07:08:25Z
2022-08-17T05:09:38Z,42.805,6.029,13.3009,4.60055,2470.53,2022-8-17T07:11:28Z
2022-08-17T05:12:41Z,42.805,6.029,13.3014,4.60052,2470.544,2022-8-17T07:14:31Z
2022-08-17T05:15:45Z,42.805,6.029,13.3009,4.60052,2470.52,2022-8-17T07:17:34Z
2022-08-17T05:18:48Z,42.805,6.029,13.3011,4.60052,2470.53,2022-8-17T07:20:37Z
2022-08-17T05:21:51Z,42.805,6.029,13.3009,4.60056,2470.507,2022-8-17T07:23:40Z
2022-08-17T05:24:54Z,42.805,6.029,13.3011,4.60052,2470.497,2022-8-17T07:26:43Z
2022-08-17T05:27:57Z,42.805,6.029,13.3007,4.60049,2470.483,2022-8-17T07:29:47Z
2022-08-17T05:31:00Z,42.805,6.029,13.3011,4.60050,2470.507,2022-8-17T07:32:50Z
2022-08-17T05:34:03Z,42.805,6.029,13.3010,4.60050,2470.507,2022-8-17T07:35:53Z
2022-08-17T05:37:06Z,42.805,6.029,13.3011,4.60049,2470.507,2022-8-17T07:38:56Z
2022-08-17T05:40:10Z,42.805,6.029,13.3009,4.60049,2470.53,2022-8-17T07:41:59Z
2022-08-17T05:43:13Z,42.805,6.029,13.3009,4.60051,2470.52,2022-8-17T07:45:02Z
2022-08-17T05:46:16Z,42.805,6.029,13.3010,4.60050,2470.53,2022-8-17T07:48:05Z
2022-08-17T05:49:19Z,42.805,6.029,13.3009,4.60052,2470.507,2022-8-17T07:51:08Z
2022-08-17T05:52:22Z,42.805,6.029,13.3007,4.60055,2470.507,2022-8-17T07:54:12Z
2022-08-17T05:55:25Z,42.805,6.029,13.3011,4.60049,2470.52,2022-8-17T07:57:15Z
2022-08-17T05:58:28Z,42.805,6.029,13.3007,4.60049,2470.507,2022-8-17T08:00:18Z
2022-08-17T06:01:31Z,42.805,6.029,13.3009,4.60050,2470.52,2022-8-17T08:03:21Z
2022-08-17T06:04:35Z,42.805,6.029,13.3006,4.60049,2470.493,2022-8-17T08:06:24Z
2022-08-17T06:07:38Z,42.805,6.029,13.3007,4.60049,2470.52,2022-8-17T08:09:27Z
2022-08-17T06:10:41Z,42.805,6.029,13.3010,4.60049,2470.483,2022-8-17T08:12:30Z
2022-08-17T06:13:44Z,42.805,6.029,13.3006,4.60051,2470.483,2022-8-17T08:15:33Z
2022-08-17T06:16:47Z,42.805,6.029,13.3007,4.60050,2470.52,2022-8-17T08:18:36Z
2022-08-17T06:19:50Z,42.805,6.029,13.3006,4.60051,2470.507,2022-8-17T08:21:40Z
2022-08-17T06:22:53Z,42.805,6.029,13.3011,4.60049,2470.507,2022-8-17T08:24:43Z
2022-08-17T06:25:56Z,42.805,6.029,13.3009,4.60050,2470.53,2022-8-17T08:27:46Z
2022-08-17T06:29:00Z,42.805,6.029,13.3011,4.60049,2470.483,2022-8-17T08:30:49Z
2022-08-17T06:32:03Z,42.805,6.029,13.3011,4.60049,2470.483,2022-8-17T08:33:52Z
2022-08-17T06:35:06Z,42.805,6.029,13.3009,4.60052,2470.507,2022-8-17T08:36:55Z
2022-08-17T06:38:09Z,42.805,6.029,13.3009,4.60051,2470.53,2022-8-17T08:39:58Z
2022-08-17T06:41:12Z,42.805,6.029,13.3009,4.60051,2470.52,2022-8-17T08:43:01Z
2022-08-17T06:44:15Z,42.805,6.029,13.3009,4.60049,2470.53,2022-8-17T08:46:05Z
2022-08-17T06:47:18Z,42.805,6.029,13.3008,4.60049,2470.53,2022-8-17T08:49:08Z
2022-08-17T06:50:21Z,42.805,6.029,13.3010,4.60049,2470.507,2022-8-17T08:52:11Z
2022-08-17T06:53:24Z,42.805,6.029,13.3011,4.60049,2470.52,2022-8-17T08:55:14Z
2022-08-17T06:56:28Z,42.805,6.029,13.3009,4.60049,2470.53,2022-8-17T08:58:17Z
2022-08-17T06:59:31Z,42.805,6.029,13.3011,4.60048,2470.507,2022-8-17T09:01:20Z
2022-08-17T07:02:34Z,42.805,6.029,13.3009,4.60056,2470.52,2022-8-17T09:04:23Z
2022-08-17T07:05:37Z,42.805,6.029,13.3009,4.60047,2470.53,2022-8-17T09:07:26Z
2022-08-17T07:08:40Z,42.805,6.029,13.3011,4.60049,2470.553,2022-8-17T09:10:30Z
2022-08-17T07:11:43Z,42.805,6.029,13.3009,4.60049,2470.53,2022-8-17T09:13:33Z
2022-08-17T07:14:46Z,42.805,6.029,13.3008,4.60049,2470.507,2022-8-17T09:16:36Z
2022-08-17T07:17:49Z,42.805,6.029,13.3008,4.60047,2470.53,2022-8-17T09:19:39Z
2022-08-17T07:20:53Z,42.805,6.029,13.3005,4.60047,2470.544,2022-8-17T09:22:42Z
2022-08-17T07:23:56Z,42.805,6.029,13.3004,4.60046,2470.567,2022-8-17T09:25:45Z
2022-08-17T07:26:59Z,42.805,6.029,13.3006,4.60045,2470.53,2022-8-17T09:28:48Z
2022-08-17T07:30:02Z,42.805,6.029,13.3009,4.60046,2470.553,2022-8-17T09:31:51Z
2022-08-17T07:33:05Z,42.805,6.029,13.3009,4.60047,2470.53,2022-8-17T09:34:55Z
2022-08-17T07:36:08Z,42.805,6.029,13.3009,4.60048,2470.591,2022-8-17T09:37:58Z
2022-08-17T07:39:11Z,42.805,6.029,13.3007,4.60046,2470.567,2022-8-17T09:41:01Z
2022-08-17T07:42:14Z,42.805,6.029,13.3008,4.60049,2470.553,2022-8-17T09:44:04Z
2022-08-17T07:45:18Z,42.805,6.029,13.3006,4.60047,2470.591,2022-8-17T09:47:07Z
2022-08-17T07:48:21Z,42.805,6.029,13.3011,4.60049,2470.591,2022-8-17T09:50:10Z
2022-08-17T07:51:24Z,42.805,6.029,13.3005,4.60049,2470.567,2022-8-17T09:53:13Z
2022-08-17T07:54:27Z,42.805,6.029,13.3012,4.60048,2470.553,2022-8-17T09:56:16Z
2022-08-17T07:57:30Z,42.805,6.029,13.3012,4.60050,2470.553,2022-8-17T09:59:20Z
2022-08-17T08:00:33Z,42.805,6.029,13.3006,4.60046,2470.577,2022-8-17T10:02:23Z
2022-08-17T08:03:36Z,42.805,6.029,13.3006,4.60049,2470.567,2022-8-17T10:05:26Z
2022-08-17T08:06:39Z,42.805,6.029,13.3008,4.60046,2470.591,2022-8-17T10:08:29Z
2022-08-17T08:09:43Z,42.805,6.029,13.3006,4.60046,2470.553,2022-8-17T10:11:32Z
2022-08-17T08:12:46Z,42.805,6.029,13.3007,4.60048,2470.577,2022-8-17T10:14:35Z
2022-08-17T08:15:49Z,42.805,6.029,13.3007,4.60054,2470.553,2022-8-17T10:17:38Z
2022-08-17T08:18:52Z,42.805,6.029,13.3006,4.60049,2470.553,2022-8-17T10:20:41Z
2022-08-17T08:21:55Z,42.805,6.029,13.3009,4.60049,2470.6,2022-8-17T10:23:45Z
2022-08-17T08:24:58Z,42.805,6.029,13.3008,4.60046,2470.614,2022-8-17T10:26:48Z
2022-08-17T08:28:01Z,42.805,6.029,13.3006,4.60046,2470.591,2022-8-17T10:29:51Z
2022-08-17T08:31:04Z,42.805,6.029,13.3009,4.60050,2470.6,2022-8-17T10:32:54Z
2022-08-17T08:34:08Z,42.805,6.029,13.3008,4.60051,2470.577,2022-8-17T10:35:57Z
2022-08-17T08:37:11Z,42.805,6.029,13.3009,4.60050,2470.637,2022-8-17T10:39:00Z
2022-08-17T08:40:14Z,42.805,6.029,13.3009,4.60050,2470.637,2022-8-17T10:42:03Z
2022-08-17T08:43:17Z,42.805,6.029,13.3009,4.60049,2470.6,2022-8-17T10:45:06Z
2022-08-17T08:46:20Z,42.805,6.029,13.3010,4.60050,2470.614,2022-8-17T10:48:10Z
2022-08-17T08:49:23Z,42.805,6.029,13.3006,4.60049,2470.637,2022-8-17T10:51:13Z
2022-08-17T08:52:26Z,42.805,6.029,13.3011,4.60048,2470.6,2022-8-17T10:54:16Z
2022-08-17T08:55:30Z,42.805,6.029,13.3011,4.60046,2470.624,2022-8-17T10:57:20Z
2022-08-17T08:58:33Z,42.805,6.029,13.3006,4.60047,2470.591,2022-8-17T11:00:23Z
2022-08-17T09:01:36Z,42.805,6.029,13.3005,4.60048,2470.6,2022-8-17T11:03:26Z
2022-08-17T09:04:40Z,42.805,6.029,13.3006,4.60048,2470.614,2022-8-17T11:06:29Z
2022-08-17T09:07:43Z,42.805,6.029,13.3006,4.60049,2470.624,2022-8-17T11:09:32Z
2022-08-17T09:10:46Z,42.805,6.029,13.3008,4.60052,2470.624,2022-8-17T11:12:35Z
2022-08-17T09:13:49Z,42.805,6.029,13.3010,4.60054,2470.624,2022-8-17T11:15:38Z
2022-08-17T09:16:52Z,42.805,6.029,13.3005,4.60049,2470.614,2022-8-17T11:18:41Z
2022-08-17T09:19:55Z,42.805,6.029,13.3005,4.60047,2470.624,2022-8-17T11:21:45Z
2022-08-17T09:22:58Z,42.805,6.029,13.3006,4.60048,2470.6,2022-8-17T11:24:48Z
2022-08-17T09:26:01Z,42.805,6.029,13.3009,4.60049,2470.6,2022-8-17T11:27:51Z
2022-08-17T09:29:05Z,42.805,6.029,13.3011,4.60049,2470.661,2022-8-17T11:30:54Z
2022-08-17T09:32:08Z,42.805,6.029,13.3006,4.60047,2470.6,2022-8-17T11:33:57Z
2022-08-17T09:35:11Z,42.805,6.029,13.3009,4.60046,2470.6,2022-8-17T11:37:00Z
2022-08-17T09:38:14Z,42.805,6.029,13.3009,4.60047,2470.624,2022-8-17T11:40:03Z
2022-08-17T09:41:17Z,42.805,6.029,13.3009,4.60047,2470.646,2022-8-17T11:43:06Z
2022-08-17T09:44:20Z,42.805,6.029,13.3006,4.60046,2470.624,2022-8-17T11:46:10Z
2022-08-17T09:47:23Z,42.805,6.029,13.3006,4.60045,2470.637,2022-8-17T11:49:13Z
2022-08-17T09:50:26Z,42.805,6.029,13.3006,4.60046,2470.661,2022-8-17T11:52:16Z
2022-08-17T09:53:30Z,42.805,6.029,13.3004,4.60046,2470.637,2022-8-17T11:55:19Z
2022-08-17T09:56:33Z,42.805,6.029,13.3010,4.60047,2470.684,2022-8-17T11:58:22Z
2022-08-17T09:59:36Z,42.805,6.029,13.3009,4.60050,2470.624,2022-8-17T12:01:25Z
2022-08-17T10:02:39Z,42.805,6.029,13.3009,4.60046,2470.646,2022-8-17T12:04:28Z
2022-08-17T10:05:42Z,42.805,6.029,13.3010,4.60047,2470.646,2022-8-17T12:07:32Z
2022-08-17T10:08:45Z,42.805,6.029,13.3009,4.60046,2470.684,2022-8-17T12:10:35Z
2022-08-17T10:11:48Z,42.805,6.029,13.3008,4.60046,2470.637,2022-8-17T12:13:38Z
2022-08-17T10:14:51Z,42.805,6.029,13.3006,4.60048,2470.624,2022-8-17T12:16:41Z
2022-08-17T10:17:55Z,42.805,6.029,13.3004,4.60046,2470.646,2022-8-17T12:19:44Z
2022-08-17T10:20:58Z,42.805,6.029,13.3009,4.60046,2470.6,2022-8-17T12:22:47Z
2022-08-17T10:24:01Z,42.805,6.029,13.3007,4.60046,2470.6,2022-8-17T12:25:50Z
2022-08-17T10:27:04Z,42.805,6.029,13.3011,4.60050,2470.646,2022-8-17T12:28:53Z
2022-08-17T10:30:07Z,42.805,6.029,13.3005,4.60049,2470.624,2022-8-17T12:31:57Z
2022-08-17T10:33:10Z,42.805,6.029,13.3004,4.60046,2470.661,2022-8-17T12:35:00Z
2022-08-17T10:36:13Z,42.805,6.029,13.3005,4.60049,2470.624,2022-8-17T12:38:03Z
2022-08-17T10:39:16Z,42.805,6.029,13.3004,4.60049,2470.637,2022-8-17T12:41:06Z
2022-08-17T10:42:20Z,42.805,6.029,13.3006,4.60048,2470.646,2022-8-17T12:44:09Z
2022-08-17T10:45:23Z,42.805,6.029,13.3009,4.60047,2470.624,2022-8-17T12:47:12Z
2022-08-17T10:48:26Z,42.805,6.029,13.3006,4.60049,2470.624,2022-8-17T12:50:15Z
2022-08-17T10:51:29Z,42.805,6.029,13.3007,4.60049,2470.646,2022-8-17T12:53:18Z
2022-08-17T10:54:32Z,42.805,6.029,13.3010,4.60047,2470.624,2022-8-17T12:56:22Z
2022-08-17T10:57:35Z,42.805,6.029,13.3006,4.60046,2470.624,2022-8-17T12:59:25Z
2022-08-17T11:00:38Z,42.805,6.029,13.3009,4.60048,2470.624,2022-8-17T13:02:28Z
2022-08-17T11:03:41Z,42.805,6.029,13.3007,4.60048,2470.661,2022-8-17T13:05:31Z
2022-08-17T11:06:45Z,42.805,6.029,13.3004,4.60049,2470.637,2022-8-17T13:08:34Z
2022-08-17T11:09:48Z,42.805,6.029,13.3010,4.60049,2470.624,2022-8-17T13:11:37Z
2022-08-17T11:12:51Z,42.805,6.029,13.3006,4.60049,2470.624,2022-8-17T13:14:40Z
2022-08-17T11:15:54Z,42.805,6.029,13.3006,4.60057,2470.624,2022-8-17T13:17:43Z
2022-08-17T11:18:57Z,42.805,6.029,13.3004,4.60051,2470.624,2022-8-17T13:20:47Z
2022-08-17T11:22:00Z,42.805,6.029,13.3006,4.60048,2470.624,2022-8-17T13:23:50Z
2022-08-17T11:25:03Z,42.805,6.029,13.3006,4.60049,2470.624,2022-8-17T13:26:53Z
2022-08-17T11:28:06Z,42.805,6.029,13.3010,4.60046,2470.624,2022-8-17T13:29:56Z
2022-08-17T11:31:10Z,42.805,6.029,13.3006,4.60047,2470.624,2022-8-17T13:32:59Z
2022-08-17T11:34:13Z,42.805,6.029,13.3009,4.60049,2470.624,2022-8-17T13:36:02Z
2022-08-17T11:37:16Z,42.805,6.029,13.3007,4.60049,2470.6,2022-8-17T13:39:06Z
2022-08-17T11:40:19Z,42.805,6.029,13.3006,4.60048,2470.637,2022-8-17T13:42:09Z
2022-08-17T11:43:22Z,42.805,6.029,13.3005,4.60049,2470.624,2022-8-17T13:45:12Z
2022-08-17T11:46:25Z,42.805,6.029,13.3005,4.60046,2470.624,2022-8-17T13:48:15Z
2022-08-17T11:49:29Z,42.805,6.029,13.3010,4.60049,2470.624,2022-8-17T13:51:18Z
2022-08-17T11:52:32Z,42.805,6.029,13.3000,4.60049,2470.614,2022-8-17T13:54:21Z
2022-08-17T11:55:35Z,42.805,6.029,13.3011,4.60049,2470.646,2022-8-17T13:57:24Z
2022-08-17T11:58:38Z,42.805,6.029,13.3007,4.60049,2470.6,2022-8-17T14:00:27Z
2022-08-17T12:01:41Z,42.805,6.029,13.3007,4.60050,2470.61,2022-8-17T14:03:31Z
2022-08-17T12:04:44Z,42.805,6.029,13.3005,4.60047,2470.6,2022-8-17T14:06:34Z
2022-08-17T12:07:47Z,42.805,6.029,13.3006,4.60049,2470.586,2022-8-17T14:09:37Z
2022-08-17T12:10:50Z,42.805,6.029,13.3006,4.60049,2470.614,2022-8-17T14:12:40Z
2022-08-17T12:13:54Z,42.805,6.029,13.3005,4.60049,2470.6,2022-8-17T14:15:43Z
2022-08-17T12:16:57Z,42.805,6.029,13.3006,4.60048,2470.637,2022-8-17T14:18:46Z
2022-08-17T12:20:00Z,42.805,6.029,13.3008,4.60049,2470.637,2022-8-17T14:21:49Z
2022-08-17T12:23:03Z,42.805,6.029,13.3006,4.60049,2470.637,2022-8-17T14:24:52Z
2022-08-17T12:26:06Z,42.805,6.029,13.3006,4.60049,2470.6,2022-8-17T14:27:56Z
2022-08-17T12:29:09Z,42.805,6.029,13.3011,4.60048,2470.614,2022-8-17T14:30:59Z
2022-08-17T12:32:12Z,42.805,6.029,13.3007,4.60049,2470.577,2022-8-17T14:34:02Z
2022-08-17T12:35:15Z,42.805,6.029,13.3009,4.60049,2470.624,2022-8-17T14:37:05Z
2022-08-17T12:38:19Z,42.805,6.029,13.3009,4.60050,2470.661,2022-8-17T14:40:08Z
2022-08-17T12:41:22Z,42.805,6.029,13.3011,4.60050,2470.624,2022-8-17T14:43:11Z
2022-08-17T12:44:25Z,42.805,6.029,13.3006,4.60049,2470.624,2022-8-17T14:46:14Z
2022-08-17T12:47:28Z,42.805,6.029,13.3006,4.60050,2470.624,2022-8-17T14:49:17Z
2022-08-17T12:50:31Z,42.805,6.029,13.3011,4.60049,2470.624,2022-8-17T14:52:21Z
2022-08-17T12:53:34Z,42.805,6.029,13.3006,4.60049,2470.614,2022-8-17T14:55:24Z
2022-08-17T12:56:37Z,42.805,6.029,13.3009,4.60050,2470.591,2022-8-17T14:58:27Z
2022-08-17T12:59:40Z,42.805,6.029,13.3010,4.60051,2470.577,2022-8-17T15:01:30Z
2022-08-17T13:02:44Z,42.805,6.029,13.3006,4.60051,2470.6,2022-8-17T15:04:33Z
2022-08-17T13:05:47Z,42.805,6.029,13.3004,4.60049,2470.6,2022-8-17T15:07:36Z
2022-08-17T13:08:50Z,42.805,6.029,13.3009,4.60053,2470.614,2022-8-17T15:10:39Z
2022-08-17T13:11:53Z,42.805,6.029,13.3009,4.60052,2470.6,2022-8-17T15:13:42Z
2022-08-17T13:14:56Z,42.805,6.029,13.3011,4.60050,2470.591,2022-8-17T15:16:46Z
2022-08-17T13:17:59Z,42.805,6.029,13.3008,4.60050,2470.614,2022-8-17T15:19:49Z
2022-08-17T13:21:02Z,42.805,6.029,13.3007,4.60049,2470.6,2022-8-17T15:22:52Z
2022-08-17T13:24:05Z,42.805,6.029,13.3007,4.60052,2470.6,2022-8-17T15:25:55Z
2022-08-17T13:27:09Z,42.805,6.029,13.3009,4.60050,2470.577,2022-8-17T15:28:58Z
2022-08-17T13:30:12Z,42.805,6.029,13.3006,4.60050,2470.577,2022-8-17T15:32:01Z
2022-08-17T13:33:15Z,42.805,6.029,13.3011,4.60049,2470.577,2022-8-17T15:35:04Z
2022-08-17T13:36:18Z,42.805,6.029,13.3006,4.60052,2470.577,2022-8-17T15:38:07Z
2022-08-17T13:39:21Z,42.805,6.029,13.3010,4.60049,2470.591,2022-8-17T15:41:11Z
2022-08-17T13:42:24Z,42.805,6.029,13.3012,4.60053,2470.6,2022-8-17T15:44:14Z
2022-08-17T13:45:27Z,42.805,6.029,13.3007,4.60050,2470.6,2022-8-17T15:47:17Z
2022-08-17T13:48:30Z,42.805,6.029,13.3012,4.60049,2470.624,2022-8-17T15:50:20Z
2022-08-17T13:51:34Z,42.805,6.029,13.3009,4.60051,2470.577,2022-8-17T15:53:23Z
2022-08-17T13:54:37Z,42.805,6.029,13.3005,4.60049,2470.577,2022-8-17T15:56:26Z
2022-08-17T13:57:40Z,42.805,6.029,13.3007,4.60050,2470.6,2022-8-17T15:59:29Z
2022-08-17T14:00:43Z,42.805,6.029,13.3007,4.60050,2470.577,2022-8-17T16:02:32Z
2022-08-17T14:03:46Z,42.805,6.029,13.3006,4.60050,2470.577,2022-8-17T16:05:36Z
2022-08-17T14:06:49Z,42.805,6.029,13.3010,4.60050,2470.577,2022-8-17T16:08:39Z
2022-08-17T14:09:52Z,42.805,6.029,13.3008,4.60047,2470.577,2022-8-17T16:11:42Z
2022-08-17T14:12:56Z,42.805,6.029,13.3006,4.60051,2470.6,2022-8-17T16:14:45Z
2022-08-17T14:15:59Z,42.805,6.029,13.3005,4.60055,2470.614,2022-8-17T16:17:48Z
2022-08-17T14:19:02Z,42.805,6.029,13.3009,4.60049,2470.577,2022-8-17T16:20:51Z
2022-08-17T14:22:05Z,42.805,6.029,13.3006,4.60051,2470.567,2022-8-17T16:23:54Z
2022-08-17T14:25:08Z,42.805,6.029,13.3003,4.60047,2470.591,2022-8-17T16:26:58Z
2022-08-17T14:28:11Z,42.805,6.029,13.3008,4.60046,2470.553,2022-8-17T16:30:01Z
2022-08-17T14:31:14Z,42.805,6.029,13.3006,4.60048,2470.567,2022-8-17T16:33:04Z
2022-08-17T14:34:17Z,42.805,6.029,13.3010,4.60050,2470.6,2022-8-17T16:36:07Z
2022-08-17T14:37:20Z,42.805,6.029,13.3010,4.60050,2470.553,2022-8-17T16:39:10Z
2022-08-17T14:40:24Z,42.805,6.029,13.3007,4.60050,2470.591,2022-8-17T16:42:13Z
2022-08-17T14:43:27Z,42.805,6.029,13.3009,4.60054,2470.567,2022-8-17T16:45:16Z
2022-08-17T14:46:30Z,42.805,6.029,13.3006,4.60047,2470.591,2022-8-17T16:48:19Z
2022-08-17T14:49:33Z,42.805,6.029,13.3005,4.60049,2470.553,2022-8-17T16:51:22Z
2022-08-17T14:52:36Z,42.805,6.029,13.3011,4.60055,2470.53,2022-8-17T16:54:26Z
2022-08-17T14:55:39Z,42.805,6.029,13.3009,4.60051,2470.553,2022-8-17T16:57:29Z
2022-08-17T14:58:42Z,42.805,6.029,13.3009,4.60055,2470.577,2022-8-17T17:00:32Z
2022-08-17T15:01:46Z,42.805,6.029,13.3007,4.60056,2470.53,2022-8-17T17:03:35Z
2022-08-17T15:04:49Z,42.805,6.029,13.3004,4.60051,2470.553,2022-8-17T17:06:38Z
2022-08-17T15:07:52Z,42.805,6.029,13.3010,4.60051,2470.577,2022-8-17T17:09:41Z
2022-08-17T15:10:55Z,42.805,6.029,13.3006,4.60051,2470.577,2022-8-17T17:12:44Z
2022-08-17T15:13:58Z,42.805,6.029,13.3005,4.60051,2470.567,2022-8-17T17:15:48Z